Date String (YYYY-MM-DD hh:mm:ss) UTC,Instrument flags,Ambient pressure (hPa),Sample flow (lpm),Bypass flow (lpm),Sample temperature (°C),Ambient temperature (°C),ASC tube jacket temperature (°C),LED temperature (°C),Box temperature (°C),Sample RH (%),Span deviation,Mass concentration (μg/m³),Mass concentration (μg/m³),Mass concentration (μg/m³)
DateTimeUTC,F1_M11,P_M11,Q1_M11,Q2_M11,T1_M11,T2_M11,T3_M11,T4_M11,T5_M11,U1_M11,ZSPAN_M11,X0_M11,X2_M11,X1_M11
2022-07-19 03:00:00,,0825.8,5.00,0.00,29.3,27.1,00.0,38.0,31.0,23.4,0000.0,0007.79,0003.24,0002.56
2022-07-19 03:01:00,,0825.7,5.00,0.00,29.3,27.3,00.0,38.0,31.0,23.4,0000.0,0007.84,0003.25,0002.55
2022-07-19 03:02:00,,0825.7,5.00,0.00,29.3,27.5,00.0,38.0,31.1,23.4,0000.0,0007.93,0003.27,0002.56
2022-07-19 03:03:00,,0825.7,4.99,0.00,29.3,27.7,00.0,38.0,31.2,23.3,0000.0,0007.86,0003.26,0002.56
2022-07-19 03:04:00,,0825.7,5.01,0.00,29.3,27.9,00.0,38.0,31.3,23.2,0000.0,0007.87,0003.27,0002.57
2022-07-19 03:05:00,,0825.7,4.99,0.00,29.4,28.1,00.0,38.0,31.3,23.1,0000.0,0007.94,0003.27,0002.55
2022-07-19 03:06:00,,0825.7,5.01,0.00,29.4,28.2,00.0,38.1,31.4,23.1,0000.0,0007.72,0003.29,0002.57
2022-07-19 03:07:00,,0825.7,4.99,0.00,29.4,28.1,00.0,38.0,31.4,22.9,0000.0,0007.76,0003.29,0002.58
2022-07-19 03:08:00,,0825.7,5.00,0.00,29.4,27.4,00.0,38.0,31.3,22.9,0000.0,0007.82,0003.32,0002.60
2022-07-19 03:09:00,,0825.7,5.00,0.00,29.4,26.9,00.0,37.9,31.2,23.0,0000.0,0007.75,0003.30,0002.60
2022-07-19 03:10:00,,0825.7,4.99,0.00,29.3,26.9,00.0,37.9,31.1,23.1,0000.0,0007.68,0003.27,0002.59
2022-07-19 03:11:00,,0825.7,4.99,0.00,29.3,27.1,00.0,37.9,31.0,23.2,0000.0,0007.67,0003.25,0002.60
2022-07-19 03:12:00,,0825.7,5.00,0.00,29.3,27.3,00.0,38.0,31.0,23.2,0000.0,0007.75,0003.25,0002.61
2022-07-19 03:13:00,,0825.7,5.00,0.00,29.3,27.5,00.0,38.0,31.1,23.3,0000.0,0007.76,0003.24,0002.61
2022-07-19 03:14:00,,0825.7,4.99,0.00,29.3,27.7,00.0,38.0,31.2,23.1,0000.0,0007.60,0003.24,0002.61
2022-07-19 03:15:00,,0825.8,5.00,0.00,29.3,27.9,00.0,38.0,31.2,23.0,0000.0,0008.01,0003.29,0002.64
2022-07-19 03:16:00,,0825.9,5.00,0.00,29.3,28.1,00.0,38.0,31.3,23.0,0000.0,0008.04,0003.35,0002.67
2022-07-19 03:17:00,,0826.2,5.01,0.00,29.4,28.2,00.0,38.0,31.4,23.0,0000.0,0007.93,0003.37,0002.69
2022-07-19 03:18:00,,0826.0,4.99,0.00,29.4,28.3,00.0,38.1,31.4,23.0,0000.0,0007.12,0003.39,0002.71
2022-07-19 03:19:00,,0826.0,5.00,0.00,29.5,28.0,00.0,38.0,31.4,23.0,0000.0,0006.40,0003.37,0002.73
2022-07-19 03:20:00,,0826.1,5.00,0.00,29.4,27.2,00.0,38.0,31.3,23.2,0000.0,0006.18,0003.36,0002.76
2022-07-19 03:21:00,,0826.0,4.99,0.00,29.4,27.0,00.0,37.9,31.2,23.3,0000.0,0006.31,0003.38,0002.80
2022-07-19 03:22:00,,0825.9,4.99,0.00,29.3,27.0,00.0,38.0,31.1,23.5,0000.0,0006.31,0003.41,0002.84
2022-07-19 03:23:00,,0825.9,5.00,0.00,29.3,27.2,00.0,38.0,31.0,23.6,0000.0,0006.33,0003.43,0002.88
2022-07-19 03:24:00,,0825.8,5.00,0.00,29.3,27.3,00.0,38.0,31.1,23.6,0000.0,0006.18,0003.45,0002.92
2022-07-19 03:25:00,,0825.8,5.00,0.00,29.3,27.6,00.0,38.0,31.1,23.6,0000.0,0007.23,0003.52,0002.98
2022-07-19 03:26:00,,0825.9,5.00,0.00,29.3,27.7,00.0,38.0,31.2,23.6,0000.0,0007.31,0003.52,0003.02
2022-07-19 03:27:00,,0825.9,4.99,0.00,29.3,27.9,00.0,38.0,31.3,23.7,0000.0,0007.31,0003.52,0003.07
2022-07-19 03:28:00,,0825.9,4.99,0.00,29.4,28.1,00.0,38.0,31.3,23.7,0000.0,0007.34,0003.52,0003.10
2022-07-19 03:29:00,,0825.9,5.00,0.00,29.4,28.3,00.0,38.1,31.4,23.6,0000.0,0007.49,0003.56,0003.13
2022-07-19 03:30:00,,0825.9,4.99,0.00,29.4,28.3,00.0,38.1,31.4,23.6,0000.0,0007.73,0003.63,0003.14
2022-07-19 03:31:00,,0825.9,5.00,0.00,29.5,27.8,00.0,38.0,31.4,23.5,0000.0,0007.99,0003.67,0003.17
2022-07-19 03:32:00,,0825.9,4.99,0.00,29.4,27.1,00.0,38.0,31.3,23.6,0000.0,0008.39,0003.69,0003.18
2022-07-19 03:33:00,,0826.0,5.01,0.00,29.4,27.0,00.0,38.0,31.2,23.6,0000.0,0009.02,0003.72,0003.19
2022-07-19 03:34:00,,0826.0,5.00,0.00,29.3,27.0,00.0,38.0,31.1,23.7,0000.0,0009.08,0003.77,0003.21
2022-07-19 03:35:00,,0826.0,5.01,0.00,29.3,27.2,00.0,38.0,31.0,23.8,0000.0,0010.01,0003.78,0003.21
2022-07-19 03:36:00,,0826.0,5.00,0.00,29.3,27.4,00.0,38.0,31.1,23.8,0000.0,0009.80,0003.78,0003.22
2022-07-19 03:37:00,,0826.0,5.00,0.00,29.3,27.6,00.0,38.0,31.1,23.8,0000.0,0009.59,0003.79,0003.23
2022-07-19 03:38:00,,0826.0,5.00,0.00,29.3,27.8,00.0,38.0,31.2,23.8,0000.0,0009.52,0003.81,0003.24
2022-07-19 03:39:00,,0826.0,4.99,0.00,29.3,28.0,00.0,38.0,31.3,23.7,0000.0,0009.53,0003.84,0003.25
2022-07-19 03:40:00,,0826.0,4.99,0.00,29.4,28.1,00.0,38.0,31.3,23.6,0000.0,0009.51,0003.83,0003.26
2022-07-19 03:41:00,,0826.1,5.01,0.00,29.4,28.3,00.0,38.1,31.4,23.5,0000.0,0009.41,0003.78,0003.26
2022-07-19 03:42:00,,0826.1,4.99,0.00,29.4,28.4,00.0,38.1,31.4,23.4,0000.0,0009.23,0003.78,0003.27
2022-07-19 03:43:00,,0826.1,5.00,0.00,29.5,28.0,00.0,38.1,31.4,23.3,0000.0,0008.94,0003.80,0003.28
2022-07-19 03:44:00,,0826.1,5.01,0.00,29.4,27.2,00.0,38.0,31.3,23.3,0000.0,0008.91,0003.80,0003.29
2022-07-19 03:45:00,,0826.2,5.00,0.00,29.4,26.9,00.0,38.0,31.2,23.1,0000.0,0009.66,0003.81,0003.29
2022-07-19 03:46:00,,0826.2,4.99,0.00,29.3,26.9,00.0,38.0,31.1,23.2,0000.0,0009.08,0003.81,0003.30
2022-07-19 03:47:00,,0826.2,5.00,0.00,29.3,27.1,00.0,38.0,31.0,23.2,0000.0,0008.59,0003.79,0003.30
2022-07-19 03:48:00,,0826.2,5.00,0.00,29.3,27.3,00.0,38.0,31.0,23.2,0000.0,0008.55,0003.80,0003.30
2022-07-19 03:49:00,,0826.1,5.00,0.00,29.3,27.5,00.0,38.0,31.1,23.2,0000.0,0008.49,0003.76,0003.30
2022-07-19 03:50:00,,0826.1,5.00,0.00,29.3,27.7,00.0,38.0,31.2,23.2,0000.0,0008.49,0003.75,0003.29
2022-07-19 03:51:00,,0826.2,5.01,0.00,29.3,27.9,00.0,38.0,31.2,23.1,0000.0,0008.43,0003.73,0003.28
2022-07-19 03:52:00,,0826.2,4.99,0.00,29.3,28.0,00.0,38.0,31.3,23.1,0000.0,0008.46,0003.78,0003.30
2022-07-19 03:53:00,,0826.1,4.99,0.00,29.4,28.2,00.0,38.0,31.3,23.2,0000.0,0008.54,0003.79,0003.29
2022-07-19 03:54:00,,0826.1,5.02,0.00,29.4,28.3,00.0,38.1,31.4,23.1,0000.0,0008.54,0003.79,0003.30
2022-07-19 03:55:00,,0826.1,4.99,0.00,29.5,28.2,00.0,38.1,31.4,23.0,0000.0,0008.28,0003.79,0003.29
2022-07-19 03:56:00,,0826.2,5.01,0.00,29.4,27.4,00.0,38.0,31.3,22.9,0000.0,0007.57,0003.78,0003.29
2022-07-19 03:57:00,,0826.2,5.00,0.00,29.4,26.9,00.0,38.0,31.2,22.9,0000.0,0007.05,0003.79,0003.29
2022-07-19 03:58:00,,0826.2,4.99,0.00,29.3,26.9,00.0,38.0,31.1,22.9,0000.0,0007.20,0003.84,0003.30
2022-07-19 03:59:00,,0826.2,4.99,0.00,29.3,27.0,00.0,38.0,31.0,23.0,0000.0,0007.70,0003.86,0003.29
